Location: Laan Hart van Zuid
(52.2563°N, 6.7904°E)
Time: 00:59:31
(UTC+01:00)

ACS3 Solar Sail - Pass Details

Date: 26 January 2026
Orbit: 899 x 968 km, 97.2° (Epoch: 14 February)

Event Time Altitude Azimuth Distance (km) Brightness Sun altitude
Rises 04:39:40 0° 7° (N) 3,627 5.0 -33.8°
Reaches altitude 10° 04:42:34 10° 355° (N) 2,666 4.1 -33.3°
Enters shadow 04:42:51 11° 353° (N) 2,579 4.0 -33.3°
